This is the latest recevied weather packets stored in our database for station/object YO2LDK-13. If no packets are shown the sender has not sent any weather packets the latest 10 day(s).
| Time | Temp. | Humidity | Pressure | Rain* | Wind** | Luminosity | Snow |
|---|---|---|---|---|---|---|---|
| 1777815020 | 20.56° C | 32% | 1009.8 hPa | 0 mm | - | 229 W/m² | - |
| 1777814420 | 20.56° C | 31% | 1009.8 hPa | 0 mm | - | 412 W/m² | - |
| 1777812620 | 19.44° C | 33% | 1010.2 hPa | 0 mm | - | 696 W/m² | - |
| 1777812020 | 21.11° C | 31% | 1010.5 hPa | 0 mm | - | 730 W/m² | - |
| 1777810820 | 19.44° C | 31% | 1010.5 hPa | 0 mm | - | 71 W/m² | - |
| 1777810519 | 19.44° C | 34% | 1010.5 hPa | 0 mm | - | 78 W/m² | - |
| 1777810219 | 19.44° C | 34% | 1010.5 hPa | 0 mm | - | 781 W/m² | - |
| 1777809620 | 20.56° C | 34% | 1010.8 hPa | 0 mm | - | 73 W/m² | - |
| 1777809320 | 19.44° C | 33% | 1010.5 hPa | 0 mm | - | 800 W/m² | - |
| 1777808720 | 19.44° C | 33% | 1010.8 hPa | 0 mm | - | 806 W/m² | - |
| 1777806619 | 20° C | 33% | 1011.2 hPa | 0 mm | - | 73 W/m² | - |
| 1777806020 | 20° C | 34% | 1010.8 hPa | 0 mm | - | 374 W/m² | - |
| 1777805719 | 19.44° C | 35% | 1011.2 hPa | 0 mm | - | 71 W/m² | - |
| 1777804219 | 17.78° C | 36% | 1011.2 hPa | 0 mm | - | 829 W/m² | - |
| 1777803019 | 19.44° C | 36% | 1011.5 hPa | 0 mm | - | 805 W/m² | - |
| 1777802720 | 18.89° C | 36% | 1011.5 hPa | 0 mm | - | 806 W/m² | - |
| 1777801219 | 17.78° C | 37% | 1011.5 hPa | 0 mm | - | 66 W/m² | - |
| 1777800920 | 17.22° C | 40% | 1011.5 hPa | 0 mm | - | 68 W/m² | - |
| 1777800619 | 17.22° C | 37% | 1011.5 hPa | 0 mm | - | 64 W/m² | - |
| 1777800320 | 17.22° C | 37% | 1011.9 hPa | 0 mm | - | 230 W/m² | - |
| 1777800020 | 17.22° C | 36% | 1011.5 hPa | 0 mm | - | 53 W/m² | - |
| 1777799720 | 17.22° C | 39% | 1011.9 hPa | 0 mm | - | 441 W/m² | - |
| 1777799419 | 16.67° C | 37% | 1011.9 hPa | 0 mm | - | 60 W/m² | - |
| 1777799120 | 16.67° C | 39% | 1012.2 hPa | 0 mm | - | 61 W/m² | - |
| 1777798819 | 16.11° C | 42% | 1012.2 hPa | 0 mm | - | 58 W/m² | - |
* Rain latest hour (hover to see other rain measurements)
** Current wind speed in m/s (hover to see current wind gust speed)